Location: Wald
(31.7579°N, 86.6655°W)
Time: 11:29:29
(UTC+00:00)

IRS-1C - Pass Details

Date: 14 July 2020
Orbit: 815 x 817 km, 98.8° (Epoch: 08 August)

Event Time Altitude Azimuth Distance (km) Brightness Sun altitude
Rises 07:59:59 0° 17° (NNE) 3,345 8.4 -28.6°
Reaches altitude 10° 08:02:22 10° 21° (NNE) 2,410 7.5 -28.3°
Maximum altitude 08:07:38 62° 101° (ESE) 914 4.3 -27.6°
Enters shadow 08:08:02 60° 124° (SE) 929 4.3 -27.6°
